SKW5415 KLAX-KSAN

Flight info

Callsign SKW5415
Flight time 0h 34m
Altitude 13000
Route LAXX1 MZB
Aircraft E75L/M-SDE3GILORVW/S

Departure

Time 2026-05-06 23:19
Airport Los Angeles International Airport (KLAX)

Arrival

Time 2026-05-06 23:54
Airport San Diego International Airport (KSAN)
Time Latitude Longitude Altitude Speed Heading
2026-05-06 23:00 33.94241 -118.39784 118 ft 0 kts 83°
2026-05-06 23:08 33.94239 -118.39794 118 ft 2 kts 81°
2026-05-06 23:08 33.94237 -118.39812 118 ft 2 kts 83°
2026-05-06 23:08 33.94238 -118.39830 119 ft 2 kts 112°
2026-05-06 23:09 33.94246 -118.39845 119 ft 2 kts 139°
2026-05-06 23:09 33.94258 -118.39854 119 ft 1 kts 167°
2026-05-06 23:09 33.94259 -118.39854 119 ft 2 kts 167°
2026-05-06 23:09 33.94226 -118.39847 119 ft 4 kts 171°
2026-05-06 23:10 33.94207 -118.39844 119 ft 4 kts 173°
2026-05-06 23:10 33.94173 -118.39838 119 ft 2 kts 173°
2026-05-06 23:10 33.94168 -118.39838 119 ft 0 kts 173°
2026-05-06 23:13 33.94164 -118.39838 119 ft 0 kts 173°
2026-05-06 23:13 33.94152 -118.39835 119 ft 3 kts 173°
2026-05-06 23:14 33.94120 -118.39830 119 ft 6 kts 173°
2026-05-06 23:14 33.94067 -118.39827 119 ft 8 kts 183°
2026-05-06 23:14 33.94003 -118.39822 119 ft 10 kts 172°
2026-05-06 23:14 33.93932 -118.39793 119 ft 11 kts 140°
2026-05-06 23:15 33.93909 -118.39698 118 ft 13 kts 82°
2026-05-06 23:15 33.93922 -118.39580 118 ft 15 kts 83°
2026-05-06 23:15 33.93935 -118.39449 118 ft 16 kts 82°
2026-05-06 23:15 33.93950 -118.39307 118 ft 17 kts 83°
2026-05-06 23:16 33.93966 -118.39155 117 ft 19 kts 83°
2026-05-06 23:16 33.93984 -118.38987 115 ft 21 kts 83°
2026-05-06 23:16 33.94001 -118.38805 113 ft 22 kts 83°
2026-05-06 23:16 33.94020 -118.38609 110 ft 24 kts 84°
2026-05-06 23:17 33.94039 -118.38425 108 ft 18 kts 83°
2026-05-06 23:17 33.94042 -118.38364 108 ft 0 kts 99°
2026-05-06 23:18 33.94041 -118.38357 108 ft 2 kts 108°
2026-05-06 23:18 33.94022 -118.38336 108 ft 5 kts 162°
2026-05-06 23:18 33.93976 -118.38324 108 ft 8 kts 177°
2026-05-06 23:18 33.93946 -118.38384 108 ft 12 kts 263°
2026-05-06 23:19 33.93910 -118.38743 112 ft 78 kts 263°
2026-05-06 23:19 33.93819 -118.39638 119 ft 135 kts 263°
2026-05-06 23:19 33.93688 -118.40850 471 ft 148 kts 262°
2026-05-06 23:19 33.93534 -118.42117 980 ft 159 kts 258°
2026-05-06 23:20 33.93302 -118.43450 1521 ft 168 kts 255°
2026-05-06 23:20 33.92900 -118.44772 2150 ft 169 kts 239°
2026-05-06 23:20 33.92215 -118.45908 2698 ft 177 kts 232°
2026-05-06 23:20 33.91439 -118.47162 3055 ft 200 kts 233°
2026-05-06 23:21 33.90530 -118.48644 2958 ft 237 kts 233°
2026-05-06 23:21 33.89491 -118.50327 3037 ft 260 kts 233°
2026-05-06 23:21 33.88440 -118.52019 3215 ft 244 kts 232°
2026-05-06 23:21 33.87399 -118.53638 3446 ft 251 kts 224°
2026-05-06 23:22 33.85857 -118.54559 4085 ft 255 kts 193°
2026-05-06 23:22 33.84152 -118.54926 4917 ft 247 kts 192°
2026-05-06 23:22 33.82474 -118.55315 4948 ft 245 kts 192°
2026-05-06 23:22 33.80798 -118.55697 5017 ft 246 kts 192°
2026-05-06 23:23 33.79077 -118.56093 5324 ft 259 kts 192°
2026-05-06 23:23 33.77397 -118.56493 6149 ft 256 kts 192°
2026-05-06 23:23 33.75677 -118.56935 6915 ft 257 kts 192°
2026-05-06 23:23 33.73920 -118.57410 7650 ft 260 kts 192°
2026-05-06 23:24 33.72160 -118.57915 8355 ft 264 kts 192°
2026-05-06 23:24 33.70361 -118.58191 8993 ft 267 kts 171°
2026-05-06 23:24 33.68705 -118.57253 9645 ft 271 kts 136°
2026-05-06 23:24 33.67811 -118.55308 10453 ft 274 kts 105°
2026-05-06 23:25 33.67485 -118.53050 11023 ft 274 kts 102°
2026-05-06 23:25 33.67169 -118.50794 10982 ft 274 kts 102°
2026-05-06 23:25 33.66853 -118.48543 11020 ft 275 kts 102°
2026-05-06 23:25 33.66538 -118.46300 11012 ft 274 kts 102°
2026-05-06 23:26 33.66217 -118.44021 11010 ft 274 kts 102°
2026-05-06 23:26 33.65900 -118.41770 11010 ft 274 kts 102°
2026-05-06 23:26 33.65583 -118.39514 11011 ft 279 kts 102°
2026-05-06 23:26 33.65248 -118.37156 11042 ft 293 kts 102°
2026-05-06 23:27 33.64903 -118.34734 11007 ft 297 kts 102°
2026-05-06 23:27 33.64555 -118.32285 11016 ft 298 kts 102°
2026-05-06 23:27 33.64206 -118.29833 11000 ft 298 kts 102°
2026-05-06 23:27 33.63854 -118.27364 10995 ft 298 kts 102°
2026-05-06 23:28 33.63505 -118.24917 10989 ft 298 kts 102°
2026-05-06 23:28 33.63158 -118.22485 10986 ft 298 kts 102°
2026-05-06 23:28 33.62805 -118.20025 10981 ft 298 kts 102°
2026-05-06 23:28 33.62433 -118.17584 10971 ft 298 kts 105°
2026-05-06 23:29 33.61881 -118.15204 10979 ft 297 kts 107°
2026-05-06 23:29 33.61323 -118.12820 10963 ft 298 kts 107°
2026-05-06 23:29 33.60764 -118.10434 10963 ft 298 kts 107°
2026-05-06 23:29 33.60199 -118.08026 10956 ft 298 kts 107°
2026-05-06 23:30 33.59642 -118.05647 10956 ft 298 kts 107°
2026-05-06 23:30 33.59083 -118.03263 10961 ft 298 kts 107°
2026-05-06 23:30 33.58516 -118.00849 10965 ft 298 kts 107°
2026-05-06 23:30 33.57958 -117.98473 10969 ft 299 kts 107°
2026-05-06 23:31 33.57228 -117.96154 10960 ft 298 kts 118°
2026-05-06 23:31 33.56031 -117.94115 10991 ft 299 kts 128°
2026-05-06 23:31 33.54653 -117.92253 10978 ft 300 kts 131°
2026-05-06 23:31 33.53210 -117.90466 10985 ft 300 kts 133°
2026-05-06 23:32 33.51734 -117.88702 10984 ft 300 kts 133°
2026-05-06 23:32 33.50234 -117.86935 10987 ft 300 kts 133°
2026-05-06 23:32 33.48751 -117.85201 10988 ft 300 kts 134°
2026-05-06 23:32 33.47256 -117.83456 10989 ft 300 kts 134°
2026-05-06 23:33 33.45767 -117.81721 10989 ft 300 kts 134°
2026-05-06 23:33 33.44279 -117.79988 10988 ft 300 kts 134°
2026-05-06 23:33 33.42785 -117.78250 10988 ft 300 kts 134°
2026-05-06 23:33 33.41289 -117.76510 10987 ft 300 kts 133°
2026-05-06 23:34 33.39792 -117.74770 10986 ft 300 kts 133°
2026-05-06 23:34 33.38299 -117.73036 10985 ft 300 kts 133°
2026-05-06 23:34 33.36793 -117.71285 10990 ft 298 kts 135°
2026-05-06 23:34 33.35319 -117.69576 10980 ft 296 kts 135°
2026-05-06 23:35 33.33836 -117.67857 10984 ft 296 kts 135°
2026-05-06 23:35 33.32369 -117.66157 10982 ft 296 kts 135°
2026-05-06 23:35 33.30893 -117.64445 10982 ft 296 kts 135°
2026-05-06 23:35 33.29412 -117.62730 10980 ft 296 kts 135°
2026-05-06 23:36 33.27948 -117.61037 10980 ft 296 kts 135°
2026-05-06 23:36 33.26454 -117.59308 10979 ft 296 kts 135°
2026-05-06 23:36 33.24988 -117.57611 10981 ft 296 kts 135°
2026-05-06 23:36 33.23503 -117.55895 10981 ft 296 kts 135°
2026-05-06 23:37 33.22024 -117.54187 10981 ft 296 kts 135°
2026-05-06 23:37 33.20557 -117.52492 10982 ft 296 kts 135°
2026-05-06 23:37 33.19068 -117.50774 10983 ft 296 kts 135°
2026-05-06 23:37 33.17595 -117.49075 10984 ft 296 kts 135°
2026-05-06 23:38 33.16110 -117.47362 10984 ft 296 kts 135°
2026-05-06 23:38 33.14634 -117.45665 10984 ft 300 kts 133°
2026-05-06 23:38 33.13125 -117.43924 10986 ft 300 kts 133°
2026-05-06 23:38 33.11631 -117.42203 10730 ft 298 kts 133°
2026-05-06 23:39 33.10170 -117.40524 10420 ft 290 kts 133°
2026-05-06 23:39 33.08727 -117.38864 10107 ft 282 kts 133°
2026-05-06 23:39 33.07339 -117.37268 9803 ft 275 kts 133°
2026-05-06 23:39 33.05987 -117.35715 9508 ft 270 kts 133°
2026-05-06 23:40 33.04634 -117.34161 9218 ft 269 kts 134°
2026-05-06 23:40 33.03487 -117.32441 8992 ft 264 kts 122°
2026-05-06 23:40 33.02459 -117.30608 8977 ft 267 kts 122°
2026-05-06 23:40 33.01442 -117.28793 8622 ft 265 kts 122°
2026-05-06 23:41 33.00419 -117.26983 8293 ft 261 kts 122°
2026-05-06 23:41 32.99404 -117.25217 7975 ft 259 kts 122°
2026-05-06 23:41 32.98387 -117.23451 7664 ft 258 kts 122°
2026-05-06 23:41 32.97443 -117.21594 7341 ft 265 kts 122°
2026-05-06 23:42 32.96577 -117.19632 7029 ft 266 kts 122°
2026-05-06 23:42 32.95719 -117.17712 6716 ft 266 kts 122°
2026-05-06 23:42 32.94852 -117.15784 6401 ft 264 kts 122°
2026-05-06 23:42 32.93995 -117.13858 6089 ft 262 kts 122°
2026-05-06 23:43 32.93151 -117.11951 5771 ft 261 kts 122°
2026-05-06 23:43 32.92296 -117.10032 5463 ft 263 kts 122°
2026-05-06 23:43 32.91427 -117.08091 5144 ft 264 kts 122°
2026-05-06 23:43 32.90564 -117.06190 4973 ft 260 kts 122°
2026-05-06 23:44 32.89719 -117.04324 4976 ft 256 kts 122°
2026-05-06 23:44 32.88876 -117.02451 4965 ft 252 kts 121°
2026-05-06 23:44 32.88047 -117.00623 4973 ft 252 kts 121°
2026-05-06 23:44 32.87211 -116.98792 4978 ft 252 kts 122°
2026-05-06 23:45 32.86376 -116.96965 4978 ft 253 kts 121°
2026-05-06 23:45 32.85535 -116.95133 4977 ft 253 kts 121°
2026-05-06 23:45 32.84685 -116.93285 4976 ft 253 kts 121°
2026-05-06 23:45 32.83839 -116.91451 4975 ft 253 kts 121°
2026-05-06 23:46 32.82998 -116.89631 4974 ft 253 kts 121°
2026-05-06 23:46 32.82152 -116.87806 4973 ft 252 kts 121°
2026-05-06 23:46 32.81095 -116.86192 4942 ft 247 kts 149°
2026-05-06 23:46 32.79512 -116.85669 5001 ft 236 kts 187°
2026-05-06 23:47 32.78033 -116.86334 4992 ft 221 kts 211°
2026-05-06 23:47 32.76743 -116.87258 5023 ft 215 kts 211°
2026-05-06 23:47 32.75517 -116.88135 4931 ft 216 kts 211°
2026-05-06 23:47 32.74151 -116.89105 4579 ft 219 kts 211°
2026-05-06 23:48 32.72853 -116.90022 4257 ft 218 kts 211°
2026-05-06 23:48 32.71564 -116.90922 3931 ft 215 kts 212°
2026-05-06 23:48 32.70325 -116.91881 3736 ft 204 kts 228°
2026-05-06 23:48 32.69738 -116.93302 3787 ft 187 kts 251°
2026-05-06 23:49 32.69347 -116.94772 3806 ft 185 kts 251°
2026-05-06 23:49 32.68959 -116.96208 3765 ft 181 kts 252°
2026-05-06 23:49 32.68581 -116.97611 3773 ft 178 kts 251°
2026-05-06 23:49 32.68503 -116.99065 3760 ft 179 kts 282°
2026-05-06 23:50 32.68857 -117.00477 3800 ft 182 kts 283°
2026-05-06 23:50 32.69543 -117.03310 3513 ft 183 kts 283°
2026-05-06 23:50 32.69904 -117.04785 3204 ft 185 kts 284°
2026-05-06 23:51 32.70257 -117.06229 2867 ft 184 kts 284°
2026-05-06 23:51 32.70612 -117.07682 2538 ft 182 kts 284°
2026-05-06 23:51 32.70936 -117.09101 2220 ft 168 kts 283°
2026-05-06 23:51 32.71226 -117.10360 1912 ft 152 kts 287°
2026-05-06 23:52 32.71552 -117.11520 1491 ft 145 kts 287°
2026-05-06 23:52 32.71825 -117.12633 1152 ft 135 kts 285°
2026-05-06 23:52 32.72068 -117.13686 890 ft 134 kts 283°
2026-05-06 23:52 32.72333 -117.14751 662 ft 133 kts 286°
2026-05-06 23:53 32.72589 -117.15829 472 ft 136 kts 289°
2026-05-06 23:53 32.72858 -117.16886 260 ft 133 kts 287°
2026-05-06 23:53 32.73102 -117.17937 52 ft 128 kts 287°
2026-05-06 23:53 32.73328 -117.18855 21 ft 100 kts 286°
2026-05-06 23:54 32.73484 -117.19497 20 ft 61 kts 286°
2026-05-06 23:54 32.73505 -117.19822 19 ft 28 kts 253°
2026-05-06 23:54 32.73498 -117.19990 18 ft 19 kts 285°
2026-05-06 23:54 32.73535 -117.20145 18 ft 18 kts 287°
2026-05-06 23:55 32.73489 -117.20239 18 ft 14 kts 196°